Weather History for Driggs, ID

Change the Weather History Date:

Wednesday, April 10, 2013

  Actual Average (KRXE) Record (KRXE)
Temperature  
Mean Temperature 32 °F 42 °F  
Max Temperature 45 °F 54 °F 76 °F (2012)
Min Temperature 20 °F 31 °F 19 °F (2001)
Degree Days  
Heating Degree Days 32 23  
Month to date heating degree days 238  
Since 1 July heating degree days 7167  
Cooling Degree Days 0 0  
Month to date cooling degree days 0  
Year to date cooling degree days 0  
Moisture  
Dew Point 21 °F    
Average Humidity 63    
Maximum Humidity 85    
Minimum Humidity 34    
Precipitation  
Precipitation 0.00 in 0.04 in 0.27 in (1980)
Month to date precipitation 0.44  
Year to date precipitation 3.07  
Sea Level Pressure  
Sea Level Pressure 30.02 in    
Wind  
Wind Speed 5 mph (ESE)    
Max Wind Speed 12 mph    
Max Gust Speed 18 mph    
Visibility 10 miles    
Events      
T = Trace of Precipitation, MM = Missing Value Source: NWS Daily Summary

Daily Weather History Graph

Daily Weather History Graph

Search for Another Location

Airport:

Trip Planner

Search our weather history database for the weather conditions in past years. The results will help you decide how hot, cold, wet, or windy it might be!

Date:

Astronomy

Apr. 10, 2013 Rise Set
Actual Time 6:49 AM MDT 8:02 PM MDT
Civil Twilight 6:19 AM MDT 8:32 PM MDT
Nautical Twilight 5:44 AM MDT 9:07 PM MDT
Astronomical Twilight 5:07 AM MDT 9:45 PM MDT
Moon 6:46 AM MDT (4/10) 8:44 PM MDT (4/10)
Length of Visible Light 14h 12m
Length of Day
13h 12m
New Moon, 0% of the Moon is Illuminated
Apr 10
New Moon
Apr 18
First Quarter
Apr 25
Full
May 2
Last Quarter
May 9
New

Hourly Weather History & Observations

Time (MDT) Temp. Windchill Dew Point Humidity Pressure Visibility Wind Dir Wind Speed Gust Speed Precip Events Conditions
12:56 AM 25.2 °F 18.3 °F 21.0 °F 84% 30.09 in 10.0 mi SSE 5.8 mph - N/A   Clear
1:56 AM 25.2 °F 20.9 °F 20.1 °F 81% 30.11 in 10.0 mi East 3.5 mph - N/A   Clear
2:56 AM 23.0 °F 14.7 °F 19.0 °F 85% 30.09 in 10.0 mi SSE 6.9 mph - N/A   Clear
3:56 AM 22.1 °F 15.9 °F 17.1 °F 81% 30.09 in 10.0 mi South 4.6 mph - N/A   Clear
4:56 AM 22.1 °F 17.4 °F 18.1 °F 85% 30.09 in 10.0 mi East 3.5 mph - N/A   Clear
5:56 AM 21.0 °F 16.2 °F 15.1 °F 78% 30.09 in 10.0 mi WNW 3.5 mph - N/A   Clear
6:56 AM 20.1 °F - 16.2 °F 85% 30.11 in 10.0 mi Calm Calm - N/A   Clear
7:56 AM 24.1 °F 19.7 °F 15.1 °F 69% 30.11 in 10.0 mi SE 3.5 mph - N/A   Clear
9:56 AM 34.0 °F - 15.1 °F 46% 30.10 in 10.0 mi Calm Calm - N/A   Clear
10:56 AM 34.0 °F 31.0 °F 8.1 °F 34% 30.11 in 10.0 mi NW 3.5 mph - N/A   Overcast
11:56 AM 37.9 °F 35.5 °F 14.0 °F 38% 30.09 in 10.0 mi Variable 3.5 mph - N/A   Overcast
12:56 PM 38.8 °F 32.6 °F 18.1 °F 43% 30.08 in 10.0 mi North 9.2 mph - N/A   Partly Cloudy
1:56 PM 39.9 °F 35.1 °F 19.0 °F 43% 30.04 in 10.0 mi NE 6.9 mph - N/A   Overcast
2:56 PM 43.9 °F 38.3 °F 23.0 °F 44% 30.01 in 10.0 mi NNE 10.4 mph 18.4 mph N/A   Mostly Cloudy
3:56 PM 45.9 °F 40.8 °F 26.1 °F 46% 29.98 in 10.0 mi NE 10.4 mph - N/A   Scattered Clouds
4:56 PM 45.9 °F 40.8 °F 26.1 °F 46% 29.97 in 10.0 mi NNE 10.4 mph - N/A   Partly Cloudy
5:56 PM 43.9 °F 42.3 °F 26.1 °F 50% 29.95 in 10.0 mi Variable 3.5 mph - N/A   Clear
6:56 PM 43.9 °F 41.3 °F 27.1 °F 52% 29.95 in 10.0 mi ESE 4.6 mph - N/A   Clear
7:56 PM 39.9 °F 35.8 °F 28.0 °F 63% 29.92 in 10.0 mi SE 5.8 mph - N/A   Partly Cloudy
8:56 PM 36.9 °F 31.4 °F 29.1 °F 74% 29.89 in 10.0 mi SE 6.9 mph - N/A   Clear
9:56 PM 38.8 °F 33.8 °F 29.1 °F 68% 29.85 in 10.0 mi SSE 6.9 mph - N/A   Mostly Cloudy
10:56 PM 39.9 °F 33.4 °F 30.0 °F 68% 29.83 in 10.0 mi SSE 10.4 mph - 0.00 in   Overcast
11:56 PM 37.9 °F 30.5 °F 32.0 °F 79% 29.80 in 10.0 mi South 11.5 mph - N/A   Scattered Clouds